Date String (YYYY-MM-DD hh:mm:ss) UTC,Instrument flags,absolute air pressure of the measurement (hPa),sample flow rate (lpm),inlet stack bypass flow (lpm),air temperature of the measurement (°C),ambient temperature measured by the external sensor (°C),aerosol sample conditioner tube jacket temperature (°C),OPC LED temperature (°C),internal box temperature (°C),relative humidity of the measurement (%),span deviation,mass concentration of particles derived from Lorenz-Mie calculation of OPC scattering (μg/m³),mass concentration of particles derived from Lorenz-Mie calculation of OPC scattering (μg/m³),mass concentration of particles derived from Lorenz-Mie calculation of OPC scattering (μg/m³)
DateTimeUTC,F1_M11,P_M11,Q1_M11,Q2_M11,T1_M11,T2_M11,T3_M11,T4_M11,T5_M11,U1_M11,ZSPAN_M11,X0_M11,X2_M11,X1_M11
2023-05-31 19:00:00,SystemResetWarning,0825.9,5.01,000.00,029.3,026.0,000.0,037.5,030.8,21.7,0000.0,0020.16,0005.34,0003.83
2023-05-31 19:01:00,SystemResetWarning,0825.9,5.01,000.00,029.3,026.1,000.0,037.5,030.7,21.8,0000.0,0020.51,0005.34,0003.82
2023-05-31 19:02:00,SystemResetWarning,0825.9,5.00,000.00,029.2,026.3,000.0,037.5,030.7,22.3,0000.0,0019.27,0005.30,0003.81
2023-05-31 19:03:00,SystemResetWarning,0825.8,4.99,000.00,029.2,026.6,000.0,037.5,030.8,21.9,0000.0,0019.79,0005.24,0003.80
2023-05-31 19:04:00,SystemResetWarning,0825.9,5.00,000.00,029.2,026.8,000.0,037.5,030.8,22.1,0000.0,0019.64,0005.20,0003.79
2023-05-31 19:05:00,SystemResetWarning,0825.9,5.00,000.00,029.2,027.1,000.0,037.5,030.8,22.3,0000.0,0018.68,0005.11,0003.77
2023-05-31 19:06:00,SystemResetWarning,0825.9,4.99,000.00,029.2,027.3,000.0,037.5,030.9,21.8,0000.0,0018.65,0005.13,0003.79
2023-05-31 19:07:00,SystemResetWarning,0825.9,4.99,000.00,029.3,027.5,000.0,037.5,030.9,22.1,0000.0,0018.40,0005.13,0003.78
2023-05-31 19:08:00,SystemResetWarning,0825.9,5.00,000.00,029.3,027.7,000.0,037.6,031.0,23.0,0000.0,0019.33,0005.16,0003.78
2023-05-31 19:09:00,SystemResetWarning,0825.9,5.00,000.00,029.3,027.8,000.0,037.6,031.0,22.2,0000.0,0019.13,0005.22,0003.80
2023-05-31 19:10:00,SystemResetWarning,0825.9,5.02,000.00,029.3,028.0,000.0,037.6,031.1,21.7,0000.0,0019.79,0005.19,0003.80
2023-05-31 19:11:00,SystemResetWarning,0825.9,5.00,000.00,029.4,027.9,000.0,037.6,031.1,21.6,0000.0,0020.85,0005.20,0003.80
2023-05-31 19:12:00,SystemResetWarning,0825.9,4.99,000.00,029.4,026.6,000.0,037.5,030.9,21.5,0000.0,0020.34,0005.22,0003.80
2023-05-31 19:13:00,SystemResetWarning,0825.9,5.00,000.00,029.3,025.1,000.0,037.5,030.6,21.6,0000.0,0020.19,0005.22,0003.80
2023-05-31 19:14:00,SystemResetWarning,0825.8,5.01,000.00,029.2,025.1,000.0,037.4,030.5,21.2,0000.0,0019.30,0005.25,0003.80
2023-05-31 19:15:00,SystemResetWarning,0825.8,5.00,000.00,029.1,025.5,000.0,037.4,030.5,21.8,0000.0,0018.43,0005.27,0003.78
2023-05-31 19:16:00,SystemResetWarning,0825.8,4.99,000.00,029.1,025.7,000.0,037.4,030.5,21.4,0000.0,0018.35,0005.29,0003.77
2023-05-31 19:17:00,SystemResetWarning,0825.8,4.99,000.00,029.0,026.1,000.0,037.4,030.6,21.0,0000.0,0019.41,0005.29,0003.76
2023-05-31 19:18:00,SystemResetWarning,0825.8,5.00,000.00,029.0,026.4,000.0,037.4,030.6,21.3,0000.0,0019.69,0005.31,0003.75
2023-05-31 19:19:00,SystemResetWarning,0825.8,5.00,000.00,029.0,026.7,000.0,037.4,030.7,21.8,0000.0,0019.09,0005.31,0003.73
2023-05-31 19:20:00,SystemResetWarning,0825.8,5.01,000.00,029.1,027.0,000.0,037.4,030.7,21.9,0000.0,0018.51,0005.19,0003.71
2023-05-31 19:21:00,SystemResetWarning,0825.9,5.00,000.00,029.1,027.2,000.0,037.4,030.8,22.5,0000.0,0017.45,0005.13,0003.70
2023-05-31 19:22:00,SystemResetWarning,0825.9,4.98,000.00,029.1,027.4,000.0,037.4,030.8,21.1,0000.0,0016.83,0005.09,0003.70
2023-05-31 19:23:00,SystemResetWarning,0825.9,5.00,000.00,029.1,027.6,000.0,037.4,030.8,21.7,0000.0,0016.68,0005.05,0003.68
2023-05-31 19:24:00,SystemResetWarning,0825.9,5.01,000.00,029.1,027.7,000.0,037.4,030.9,22.3,0000.0,0016.55,0005.06,0003.68
2023-05-31 19:25:00,SystemResetWarning,0825.9,5.01,000.00,029.2,027.9,000.0,037.4,030.9,22.9,0000.0,0016.69,0005.11,0003.69
2023-05-31 19:26:00,SystemResetWarning,0825.9,4.99,000.00,029.2,028.0,000.0,037.5,031.0,22.8,0000.0,0017.39,0005.15,0003.70
2023-05-31 19:27:00,SystemResetWarning,0825.9,4.99,000.00,029.3,028.0,000.0,037.5,031.0,22.8,0000.0,0017.63,0005.14,0003.70
2023-05-31 19:28:00,SystemResetWarning,0825.9,5.02,000.00,029.3,028.1,000.0,037.5,031.0,22.7,0002.8,0016.31,0005.15,0003.71
2023-05-31 19:29:00,SystemResetWarning,0825.9,5.00,000.00,029.3,027.6,000.0,037.5,031.0,22.2,0003.2,0016.11,0005.19,0003.71
2023-05-31 19:30:00,SystemResetWarning,0825.9,4.98,000.00,029.3,026.2,000.0,037.4,030.7,22.2,0003.7,0016.06,0005.15,0003.72
2023-05-31 19:31:00,SystemResetWarning,0825.9,5.01,000.00,029.2,025.9,000.0,037.4,030.7,22.0,0003.7,0015.59,0005.17,0003.73
2023-05-31 19:32:00,SystemResetWarning,0825.9,5.01,000.00,029.2,026.0,000.0,037.4,030.6,22.5,0001.9,0015.74,0005.17,0003.74
2023-05-31 19:33:00,SystemResetWarning,0825.9,4.99,000.00,029.1,026.3,000.0,037.4,030.7,22.7,0000.0,0016.87,0005.21,0003.75
2023-05-31 19:34:00,SystemResetWarning,0825.9,4.99,000.00,029.1,026.6,000.0,037.4,030.7,22.3,0000.0,0016.76,0005.23,0003.76
2023-05-31 19:35:00,SystemResetWarning,0825.9,5.00,000.00,029.1,026.9,000.0,037.4,030.8,22.2,0000.0,0017.37,0005.24,0003.78
2023-05-31 19:36:00,SystemResetWarning,0825.9,5.01,000.00,029.1,027.2,000.0,037.4,030.8,22.2,0000.0,0018.22,0005.20,0003.79
2023-05-31 19:37:00,SystemResetWarning,0825.8,5.00,000.00,029.2,027.4,000.0,037.4,030.9,22.3,0000.0,0018.43,0005.14,0003.79
2023-05-31 19:38:00,SystemResetWarning,0825.9,4.99,000.00,029.2,027.6,000.0,037.5,030.9,21.9,0000.0,0018.76,0005.16,0003.79
2023-05-31 19:39:00,SystemResetWarning,0825.9,5.00,000.00,029.2,027.7,000.0,037.5,031.0,21.6,0000.0,0019.63,0005.16,0003.79
2023-05-31 19:40:00,SystemResetWarning,0825.9,5.00,000.00,029.3,027.9,000.0,037.5,031.0,21.9,0000.0,0019.32,0005.11,0003.79
2023-05-31 19:41:00,SystemResetWarning,0825.9,4.99,000.00,029.3,028.0,000.0,037.5,031.0,22.0,0000.0,0020.65,0005.12,0003.80
2023-05-31 19:42:00,SystemResetWarning,0825.9,4.99,000.00,029.3,027.9,000.0,037.5,031.0,22.5,0000.0,0021.61,0005.11,0003.81
2023-05-31 19:43:00,SystemResetWarning,0825.9,5.00,000.00,029.3,026.4,000.0,037.5,030.8,22.7,0000.0,0022.40,0005.11,0003.82
2023-05-31 19:44:00,SystemResetWarning,0825.9,5.00,000.00,029.2,025.8,000.0,037.4,030.7,22.7,0000.0,0022.63,0005.15,0003.83
2023-05-31 19:45:00,SystemResetWarning,0825.8,5.01,000.00,029.2,025.9,000.0,037.4,030.6,22.9,0000.0,0022.86,0005.24,0003.85
2023-05-31 19:46:00,SystemResetWarning,0825.8,5.00,000.00,029.1,026.1,000.0,037.4,030.6,23.0,0000.0,0022.35,0005.30,0003.85
2023-05-31 19:47:00,SystemResetWarning,0825.8,5.00,000.00,029.1,026.5,000.0,037.4,030.7,22.3,0000.0,0021.38,0005.39,0003.85
2023-05-31 19:48:00,SystemResetWarning,0825.8,5.00,000.00,029.1,026.8,000.0,037.4,030.7,21.6,0000.0,0021.06,0005.39,0003.86
2023-05-31 19:49:00,SystemResetWarning,0825.8,5.00,000.00,029.1,027.0,000.0,037.4,030.8,21.2,0000.0,0020.78,0005.34,0003.87
2023-05-31 19:50:00,SystemResetWarning,0825.8,4.99,000.00,029.1,027.3,000.0,037.4,030.8,21.2,0000.0,0019.23,0005.33,0003.89
2023-05-31 19:51:00,SystemResetWarning,0825.8,5.00,000.00,029.2,027.5,000.0,037.4,030.9,21.4,0000.0,0019.24,0005.33,0003.90
2023-05-31 19:52:00,SystemResetWarning,0825.9,5.00,000.00,029.2,027.7,000.0,037.5,030.9,21.2,0000.0,0018.49,0005.39,0003.91
2023-05-31 19:53:00,SystemResetWarning,0825.9,4.99,000.00,029.2,027.8,000.0,037.5,031.0,21.2,0000.0,0017.67,0005.40,0003.91
2023-05-31 19:54:00,SystemResetWarning,0825.9,4.99,000.00,029.3,027.9,000.0,037.5,031.0,21.3,0000.0,0018.02,0005.43,0003.91
2023-05-31 19:55:00,SystemResetWarning,0825.8,5.00,000.00,029.3,028.0,000.0,037.5,031.1,21.4,0000.0,0017.18,0005.38,0003.90
2023-05-31 19:56:00,SystemResetWarning,0825.8,4.99,000.00,029.3,026.9,000.0,037.5,030.9,21.8,0000.0,0017.32,0005.25,0003.88
2023-05-31 19:57:00,SystemResetWarning,0825.7,5.00,000.00,029.2,025.3,000.0,037.4,030.6,21.9,0000.0,0017.84,0005.23,0003.88
2023-05-31 19:58:00,SystemResetWarning,0825.7,5.01,000.00,029.2,024.9,000.0,037.3,030.5,21.7,0000.0,0017.65,0005.13,0003.88
2023-05-31 19:59:00,SystemResetWarning,0825.6,5.02,000.00,029.1,025.1,000.0,037.3,030.4,21.7,0000.0,0018.03,0005.13,0003.88
